Weather Roundup
Issued by NWS Chicago, IL

Home | Current Version | Previous Version | Graphics & Text | Print | Product List | Glossary On
Versions: 1 2 3 4 5 6 7 8 9 10 11 12 13 14 15 16 17 18 19 20 21 22 23 24 25 26 27 28 29 30 31 32 33 34 35 36 37 38 39 40 41 42 43 44 45 46 47 48 49 50
000
NZUS59 KLOT 191508
HRRLOT

CHICAGO AREA WEATHER ROUNDUP
NATIONAL WEATHER SERVICE CHICAGO/ROMEOVILLE IL
1000 AM CDT TUE SEP 19 2017

NOTE: "FAIR" INDICATES FEW OR NO CLOUDS BELOW 12,000 FEET WITH NO
SIGNIFICANT WEATHER AND/OR OBSTRUCTIONS TO VISIBILITY.

* THESE STATIONS ARE NOT UNDER NWS QUALITY CONTROL. THEY ALSO MAY NOT
  REPORT WEATHER SUCH AS PRECIPITATION OR FOG.

ILZ005-006-012>014-019>023-191600-
NORTHEAST ILLINOIS

CITY           SKY/WX    TMP DP  RH WIND       PRES   REMARKS
OHARE          CLOUDY    69  65  86 N5        29.97R FOG
MIDWAY         LGT RAIN  69  67  93 E3        29.97R FOG
AURORA         PTSUNNY   70  67  90 CALM      29.98R
LANSING*       PTSUNNY   72  69  90 N5        29.97R FOG
JOLIET*        SUNNY     73  67  83 NE3       29.96S
WAUKEGAN       CLOUDY    68  67  96 SE3       29.98R FOG
DUPAGE AIRPORT PTSUNNY   71  67  87 NE8       29.97R
WHEELING       LGT RAIN  68  68 100 CALM      29.99R FOG
MORRIS*        PTSUNNY   70  65  83 CALM      29.96S
LEWIS AIRPORT* MOSUNNY   71  67  85 E3        29.97S
NORTHERLY ISL    N/A     67  65  93 S3          N/A
$$

WIZ051-052-058>065-066-070>072-191600-
SOUTHEAST WISCONSIN

CITY           SKY/WX    TMP DP  RH WIND       PRES   REMARKS
MILWAUKEE      MOSUNNY   73  64  73 NE5       29.99R
KENOSHA*       PTSUNNY   71  65  81 NE3       29.98R
RACINE*        MOSUNNY   73  66  78 VRB3      30.00R
WAUKESHA       PTSUNNY   68  63  83 E7        30.01R
WEST BEND        N/A     68  63  83 E3        30.01R
$$

INZ001>003-010>013-019-020-191600-
NORTHWEST INDIANA

CITY           SKY/WX    TMP DP  RH WIND       PRES   REMARKS
GARY*          PTSUNNY   73  66  78 CALM      29.97R FOG
MICHIGAN CITY* NOT AVBL
RENSSELAER*    NOT AVBL
VALPARAISO     LGT RAIN  69  68  96 NE3       29.96F FOG
$$

LMZ740>746-191600-
SOUTHERN LAKE MICHIGAN

STATION/POSITION TIME  SKY/WX   TEMP WIND        PRES    VSBY
                                AIR  DIR/SP/G
                 (UTC)          (F)  (DEG/KT/KT) (MB)    (MI)
HARRISON CRIB    1440            68  190/  5/  5   N/A
BURNHAM HARBOR   NOT AVBL
CALUMET HARBOR   1442            70   CALM  /  1 1014.2R
BURNS HARBOR     1440            68  320/  2/  3 1014.9S
MICHIGAN CITY    1440            69  340/  2/  3   N/A
$$

ABBREVIATIONS USED IN REMARKS
   TC - TEMPERATURE IN CELSIUS
  WCI - WIND CHILL INDEX
   HX - HEAT INDEX
  VSB - VISIBILITY
$$



USA.gov is the U.S. government's official web portal to all federal, state and local government web resources and services.